This demonstration page uses our WeatherBlox Daily Observations layout. Learn more.

Left ArrowRight Arrow

36.19886, -115.1175

Hourly Observations for May 6, 2021

Temp ( °F °C ) Dew Point ( °F °C ) Humidity (%) Winds ( mph kmh ) Pressure ( in mb ) Visibility ( mi km ) Precip ( " mm )
12:53 am 00:53 Clear 77 25 23 -5 13 13 WNW 3 6 29.91 1013 10 16.0934 N/A
1:53 am 01:53 Clear 72 22.2 27 -2.8 19 19 WNW 8 13 29.9 1013 10 16.0934 N/A
2:53 am 02:53 Clear 72 22.2 28 -2.2 19 19 NNW 9 15 29.9 1013 10 16.0934 N/A
3:53 am 03:53 Clear 70 21.1 27 -2.8 20 20 NW 6 9 29.91 1013 10 16.0934 N/A
4:53 am 04:53 Clear 67 19.4 27 -2.8 22 22 NW 5 7 29.93 1013 10 16.0934 N/A
5:53 am 05:53 Sunny 66 18.9 27 -2.8 23 23 NW 7 11 29.93 1014 10 16.0934 N/A
6:53 am 06:53 Sunny 71 21.7 27 -2.8 19 19 NNW 5 7 29.94 1014 10 16.0934 N/A
7:53 am 07:53 Sunny 77 25 26 -3.3 15 15 N N/A 29.95 1014 10 16.0934 N/A
8:53 am 08:53 Sunny 81 27.2 25 -3.9 13 13 N N/A 29.96 1015 10 16.0934 N/A
9:53 am 09:53 Sunny 85 29.4 25 -3.9 11 11 N N/A 29.95 1014 10 16.0934 N/A
10:53 am 10:53 Sunny 88 31.1 25 -3.9 10 10 E 7 11 29.94 1014 10 16.0934 N/A
11:53 am 11:53 Sunny 92 33.3 24 -4.4 8 8 VRB 7 11 29.91 1013 10 16.0934 N/A
12:53 pm 12:53 Sunny 94 34.4 23 -5 8 8 ESE 7 11 29.88 1012 10 16.0934 N/A
1:53 pm 13:53 Sunny 96 35.6 24 -4.4 7 7 E 9 15 29.85 1011 10 16.0934 N/A
2:53 pm 14:53 Sunny 98 36.7 24 -4.4 7 7 SE 17 28 29.81 1009 10 16.0934 N/A
3:53 pm 15:53 Sunny 97 36.1 24 -4.4 7 7 S 10 17 29.78 1009 10 16.0934 N/A
4:53 pm 16:53 Sunny 98 36.7 21 -6.1 6 6 S 14 22 29.77 1008 10 16.0934 N/A
5:53 pm 17:53 Sunny 96 35.6 22 -5.6 7 7 SSW 17 28 29.77 1008 10 16.0934 N/A
6:53 pm 18:53 Sunny 94 34.4 21 -6.1 7 7 S 15 24 29.76 1008 10 16.0934 N/A
7:53 pm 19:53 Clear 92 33.3 22 -5.6 8 8 S 12 19 29.77 1008 10 16.0934 N/A
8:53 pm 20:53 Clear 90 32.2 22 -5.6 8 8 SSW 14 22 29.79 1009 10 16.0934 N/A
9:53 pm 21:53 Clear 87 30.6 25 -3.9 10 10 SW 8 13 29.8 1009 10 16.0934 N/A
10:53 pm 22:53 Clear 84 28.9 26 -3.3 12 12 S 7 11 29.79 1009 10 16.0934 N/A
11:53 pm 23:53 Clear 82 27.8 27 -2.8 13 13 S 7 11 29.79 1009 10 16.0934 N/A

Powered by AerisWeather